Weather History for Waterville, ME

Change the Weather History Date:

Sunday, June 8, 2014

  Actual Average Record
Temperature  
Mean Temperature 68 °F -  
Max Temperature 84 °F 75 °F 89 °F (1965)
Min Temperature 53 °F 49 °F 37 °F (1988)
Cooling Degree Days 4    
Growing Degree Days 18 (Base 50)    
Moisture  
Dew Point 56 °F    
Average Humidity 69    
Maximum Humidity 100    
Minimum Humidity 35    
Precipitation  
Precipitation 0.00 in - - ()
Sea Level Pressure  
Sea Level Pressure 29.84 in    
Wind  
Wind Speed 2 mph (SW)    
Max Wind Speed 8 mph    
Max Gust Speed -    
Averages and records for this station are not official NWS values.
T = Trace of Precipitation, MM = Missing Value Source: NWS Daily Summary

Daily Weather History Graph

Daily Weather History Graph

Search for Another Location

Airport:

Trip Planner

Search our weather history database for the weather conditions in past years. The results will help you decide how hot, cold, wet, or windy it might be!

Date:

Astronomy

Jun. 08, 2014 Rise Set
Actual Time 4:54 AM EDT 8:21 PM EDT
Civil Twilight 4:17 AM EDT 8:58 PM EDT
Nautical Twilight 3:29 AM EDT 9:46 PM EDT
Astronomical Twilight 2:28 AM EDT 10:47 PM EDT
Moon 3:26 PM EDT (6/8) 1:56 AM EDT (6/8)
Length of Visible Light 16h 40m
Length of Day
15h 27m
Waxing Gibbous, 77% of the Moon is Illuminated
Jun 8
Waxing Gibbous
Jun 13
Full
Jun 19
Last Quarter
Jun 27
New
Jul 5
First Quarter

Hourly Weather History & Observations

Time (EDT) Temp. Heat Index Dew Point Humidity Pressure Visibility Wind Dir Wind Speed Gust Speed Precip Events Conditions
12:15 AM 60.8 °F - 57.2 °F 88% 29.87 in - Calm Calm - N/A   Unknown
12:35 AM - - - N/A% 29.86 in - Calm Calm - N/A   Unknown
12:55 AM - - - N/A% 29.86 in - Calm Calm - N/A   Unknown
1:15 AM - - - N/A% 29.86 in - Calm Calm - N/A   Unknown
1:35 AM 57.2 °F - 53.6 °F 88% 29.87 in - NNW 3.5 mph - N/A   Unknown
1:55 AM 57.2 °F - 55.4 °F 94% 29.87 in - Calm Calm - N/A   Unknown
2:15 AM - - - N/A% 29.87 in - Calm Calm - N/A   Unknown
2:35 AM 55.4 °F - 53.6 °F 94% 29.87 in - North 3.5 mph - N/A   Unknown
2:55 AM 57.2 °F - 53.6 °F 88% 29.87 in - Calm Calm - N/A   Unknown
3:15 AM 55.4 °F - 53.6 °F 94% 29.86 in - Calm Calm - N/A   Unknown
3:35 AM 55.4 °F - 53.6 °F 94% 29.86 in - Calm Calm - N/A   Unknown
3:55 AM 55.4 °F - 53.6 °F 94% 29.86 in - Calm Calm - N/A   Unknown
4:15 AM 55.4 °F - 55.4 °F 100% 29.86 in - Calm Calm - N/A   Unknown
4:35 AM 53.6 °F - 51.8 °F 94% 29.87 in - NNW 3.5 mph - N/A   Unknown
4:55 AM 55.4 °F - 53.6 °F 94% 29.87 in - Calm Calm - N/A   Unknown
5:15 AM 55.4 °F - 53.6 °F 94% 29.87 in - Calm Calm - N/A   Unknown
5:35 AM 55.4 °F - 53.6 °F 94% 29.87 in - Calm Calm - N/A   Overcast
5:55 AM 57.2 °F - 55.4 °F 94% 29.87 in - Calm Calm - N/A   Unknown
6:15 AM 59.0 °F - 57.2 °F 94% 29.88 in - Calm Calm - N/A   Unknown
6:35 AM 60.8 °F - 57.2 °F 88% 29.88 in - Calm Calm - N/A   Unknown
6:55 AM 62.6 °F - 59.0 °F 88% 29.88 in - Calm Calm - N/A   Unknown
7:15 AM 64.4 °F - 60.8 °F 88% 29.89 in - Calm Calm - N/A   Unknown
7:35 AM 66.2 °F - 59.0 °F 78% 29.89 in - Calm Calm - N/A   Clear
7:55 AM 68.0 °F - 59.0 °F 73% 29.89 in - Calm Calm - N/A   Clear
8:15 AM 69.8 °F - 57.2 °F 64% 29.89 in - SW 3.5 mph - N/A   Clear
8:35 AM 69.8 °F - 60.8 °F 73% 29.89 in - Calm Calm - N/A   Clear
8:55 AM 71.6 °F - 60.8 °F 69% 29.89 in - Calm Calm - N/A   Clear
9:15 AM 73.4 °F - 60.8 °F 65% 29.89 in - Calm Calm - N/A   Clear
9:35 AM 75.2 °F - 62.6 °F 65% 29.88 in - Calm Calm - N/A   Clear
9:55 AM 73.4 °F - 60.8 °F 65% 29.88 in - Calm Calm - N/A   Clear
10:15 AM 75.2 °F - 60.8 °F 61% 29.87 in - Calm Calm - N/A   Clear
10:35 AM - - - N/A% 29.86 in - Calm Calm - N/A   Unknown
10:55 AM 78.8 °F - 55.4 °F 44% 29.87 in - Calm Calm - N/A   Clear
11:15 AM 78.8 °F - 57.2 °F 47% 29.86 in - Calm Calm - N/A   Clear
11:35 AM 80.6 °F 80.8 °F 57.2 °F 45% 29.86 in - SSW 4.6 mph - N/A   Clear
11:55 AM 80.6 °F 80.5 °F 55.4 °F 42% 29.85 in - Calm Calm - N/A   Clear
12:15 PM 80.6 °F 80.8 °F 57.2 °F 45% 29.85 in - Calm Calm - N/A   Clear
12:35 PM 82.4 °F 81.7 °F 55.4 °F 39% 29.84 in - WSW 5.8 mph - N/A   Clear
12:55 PM - - - N/A% 29.83 in - SSW 5.8 mph - N/A   Unknown
1:35 PM 82.4 °F 81.4 °F 53.6 °F 37% 29.83 in - Calm Calm - N/A   Scattered Clouds
1:55 PM - - - N/A% 29.82 in - SW 5.8 mph - N/A   Unknown
2:15 PM - - - N/A% 29.82 in - West 8.1 mph - N/A   Unknown
2:35 PM - - - N/A% 29.81 in - West 5.8 mph - N/A   Unknown
2:55 PM - - - N/A% 29.81 in - West 6.9 mph - N/A   Unknown
3:15 PM - - - N/A% 29.80 in - West 3.5 mph - N/A   Unknown
3:35 PM - - - N/A% 29.80 in - West 6.9 mph - N/A   Unknown
3:55 PM 84.2 °F 82.8 °F 53.6 °F 35% 29.80 in - WNW 6.9 mph - N/A   Clear
4:15 PM 84.2 °F 82.8 °F 53.6 °F 35% 29.80 in - West 5.8 mph - N/A   Clear
4:35 PM 84.2 °F 82.8 °F 53.6 °F 35% 29.80 in - Calm Calm - N/A   Clear
4:55 PM 84.2 °F 82.8 °F 53.6 °F 35% 29.79 in - Calm Calm - N/A   Clear
5:15 PM 84.2 °F 82.8 °F 53.6 °F 35% 29.79 in - Calm Calm - N/A   Clear
5:35 PM 82.4 °F 82.0 °F 57.2 °F 42% 29.78 in - South 4.6 mph - N/A   Clear
5:55 PM - - - N/A% 29.78 in - South 5.8 mph - N/A   Unknown
6:15 PM - - - N/A% 29.78 in - SSW 8.1 mph - N/A   Unknown
6:35 PM - - - N/A% 29.78 in - SSW 6.9 mph - N/A   Unknown
6:55 PM - - - N/A% 29.78 in - SSW 4.6 mph - N/A   Unknown
7:15 PM - - - N/A% 29.79 in - SSW 5.8 mph - N/A   Unknown
7:35 PM - - - N/A% 29.80 in - SSW 4.6 mph - N/A   Unknown
7:55 PM - - - N/A% 29.80 in - South 4.6 mph - N/A   Unknown
8:15 PM - - - N/A% 29.81 in - South 5.8 mph - N/A   Unknown
8:35 PM 71.6 °F - 57.2 °F 60% 29.81 in - SSW 4.6 mph - N/A   Clear
8:55 PM 71.6 °F - 57.2 °F 60% 29.82 in - SSW 3.5 mph - N/A   Clear
9:15 PM 69.8 °F - 57.2 °F 64% 29.82 in - SSW 3.5 mph - N/A   Clear
9:35 PM - - - N/A% 29.82 in - South 4.6 mph - N/A   Unknown
9:55 PM - - - N/A% 29.82 in - SSW 3.5 mph - N/A   Unknown
10:35 PM - - - N/A% 29.83 in - SSW 4.6 mph - N/A   Unknown
10:55 PM - - - N/A% 29.83 in - SSW 4.6 mph - N/A   Unknown
11:15 PM - - - N/A% 29.83 in - SSW 3.5 mph - N/A   Unknown
11:35 PM - - - N/A% 29.83 in - SSW 3.5 mph - N/A   Unknown
11:55 PM - - - N/A% 29.83 in - SSW 5.8 mph - N/A   Unknown